Weather History for KNBG - December, 2012

Change the Weather History Date:

Friday, December 7, 2012

  Actual Average Record
Temperature  
Mean Temperature 66 °F -  
Max Temperature 73 °F 64 °F 80 °F (1998)
Min Temperature 59 °F 48 °F 28 °F (2010)
Cooling Degree Days 1    
Growing Degree Days 16 (Base 50)    
Moisture  
Dew Point 60 °F    
Average Humidity 82    
Maximum Humidity 90    
Minimum Humidity 65    
Precipitation  
Precipitation 0.00 in - - ()
Sea Level Pressure  
Sea Level Pressure 29.95 in    
Wind  
Wind Speed 2 mph (ESE)    
Max Wind Speed 6 mph    
Max Gust Speed -    
Visibility 4 miles    
Events Fog , Rain    
Averages and records for this station are not official NWS values.
T = Trace of Precipitation, MM = Missing Value Source: NWS Daily Summary

Daily Weather History Graph

Daily Weather History Graph

Search for Another Location

Airport or City:

Trip Planner

Search our weather history database for the weather conditions in past years. The results will help you decide how hot, cold, wet, or windy it might be!

Date:

Astronomy

Dec. 07, 2012 Rise Set
Actual Time 6:42 AM CST 5:00 PM CST
Civil Twilight 6:16 AM CST 5:26 PM CST
Nautical Twilight 5:47 AM CST 5:56 PM CST
Astronomical Twilight 5:18 AM CST 6:25 PM CST
Moon 12:26 AM CST (12/7) 12:36 PM CST (12/7)
Length of Visible Light 11h 10m
Length of Day
10h 17m
Last Quarter, 38% of the Moon is Illuminated
Dec 7
Last Quarter
Dec 13
New
Dec 19
First Quarter
Dec 28
Full
Jan 4
Last Quarter

Hourly Weather History & Observations

Time (CST) Temp. Dew Point Humidity Pressure Visibility Wind Dir Wind Speed Gust Speed Precip Events Conditions
12:55 AM 66.0 °F 61.0 °F 84% 29.94 in 10.0 mi ESE 3.5 mph - N/A   Overcast
1:55 AM 66.0 °F 61.0 °F 84% 29.94 in 10.0 mi ESE 4.6 mph - N/A   Mostly Cloudy
2:55 AM 64.0 °F 60.1 °F 87% 29.93 in 10.0 mi Calm Calm - N/A   Partly Cloudy
3:55 AM 63.0 °F 59.0 °F 87% 29.93 in 6.0 mi Calm Calm - N/A   Overcast
4:31 AM 62.6 °F 59.0 °F 88% 29.93 in 2.5 mi Calm Calm - N/A   Mostly Cloudy
4:40 AM 62.6 °F 57.2 °F 82% 29.93 in 0.8 mi Calm Calm - N/A   Scattered Clouds
4:55 AM 60.1 °F 57.0 °F 90% 29.94 in 0.2 mi Calm Calm - N/A Fog Fog
5:04 AM 60.8 °F 57.2 °F 88% 29.94 in 0.5 mi Calm Calm - N/A Fog Fog
5:55 AM 59.0 °F 55.0 °F 87% 29.95 in 0.2 mi Calm Calm - N/A Fog Fog
6:07 AM 59.0 °F 55.4 °F 88% 29.96 in 0.1 mi WNW 3.5 mph - N/A Fog Fog
6:55 AM 60.1 °F 57.0 °F 90% 29.97 in 0.2 mi Calm Calm - N/A Fog Fog
7:36 AM 62.6 °F 59.0 °F 88% 29.98 in 0.2 mi Calm Calm - N/A Fog Fog
7:55 AM 63.0 °F 60.1 °F 90% 29.98 in 0.2 mi Calm Calm - N/A Fog Fog
8:04 AM 64.4 °F 60.8 °F 88% 29.98 in 0.2 mi WNW 3.5 mph - N/A Fog Fog
8:55 AM 64.9 °F 62.1 °F 90% 29.99 in 0.8 mi NW 3.5 mph - N/A   Overcast
9:05 AM 66.2 °F 62.6 °F 88% 29.99 in 1.0 mi Calm Calm - N/A   Overcast
9:23 AM 66.2 °F 62.6 °F 88% 29.99 in 2.0 mi Calm Calm - N/A   Overcast
9:55 AM 68.0 °F 62.1 °F 81% 29.99 in 3.0 mi Calm Calm - N/A   Haze
10:55 AM 72.0 °F 61.0 °F 68% 29.98 in 7.0 mi Calm Calm - N/A   Mostly Cloudy
11:03 AM 71.6 °F 62.6 °F 73% 29.97 in 10.0 mi Variable 3.5 mph - N/A   Mostly Cloudy
11:15 AM 73.4 °F 60.8 °F 65% 29.97 in 10.0 mi Calm Calm - N/A   Overcast
11:55 AM 73.0 °F 61.0 °F 66% 29.96 in 10.0 mi Calm Calm - N/A   Overcast
12:04 PM 71.6 °F 60.8 °F 69% 29.95 in 10.0 mi East 3.5 mph - N/A   Overcast
12:18 PM 71.6 °F 62.6 °F 73% 29.95 in 10.0 mi ESE 3.5 mph - N/A   Overcast
12:55 PM 72.0 °F 62.1 °F 71% 29.93 in 10.0 mi SSE 4.6 mph - N/A   Overcast
1:17 PM 69.8 °F 62.6 °F 78% 29.92 in 5.0 mi South 5.8 mph - 0.00 in Rain Light Rain
1:55 PM 71.1 °F 63.0 °F 75% 29.91 in 7.0 mi Calm Calm - 0.00 in Rain Light Rain
2:13 PM 71.6 °F 62.6 °F 73% 29.90 in 7.0 mi SSE 3.5 mph - 0.00 in   Overcast
2:55 PM 71.1 °F 62.1 °F 73% 29.90 in 7.0 mi East 4.6 mph - 0.00 in   Light Drizzle
3:13 PM 71.6 °F 60.8 °F 69% 29.90 in 7.0 mi Calm Calm - 0.00 in   Mostly Cloudy
3:55 PM 72.0 °F 62.1 °F 71% 29.90 in 7.0 mi East 4.6 mph - 0.00 in   Mostly Cloudy
4:55 PM 69.1 °F 63.0 °F 81% 29.91 in 10.0 mi NE 5.8 mph - N/A   Mostly Cloudy
5:55 PM 66.0 °F 62.1 °F 87% 29.92 in 10.0 mi Calm Calm - N/A   Mostly Cloudy
6:55 PM 63.0 °F 59.0 °F 87% 29.94 in 6.0 mi Calm Calm - N/A   Mostly Cloudy
7:55 PM 62.1 °F 59.0 °F 90% 29.94 in 0.8 mi Calm Calm - N/A   Mostly Cloudy
8:24 PM 60.8 °F 57.2 °F 88% 29.95 in 0.2 mi Calm Calm - N/A Fog Fog
8:55 PM 61.0 °F 57.9 °F 90% 29.95 in 0.2 mi Calm Calm - N/A Fog Fog
9:55 PM 60.1 °F 57.0 °F 90% 29.95 in 0.2 mi Calm Calm - N/A Fog Fog
10:55 PM 59.0 °F 55.9 °F 90% 29.96 in 1.0 mi Calm Calm - N/A   Mist
11:02 PM 59.0 °F 55.4 °F 88% 29.95 in 0.2 mi Calm Calm - N/A Fog Fog
11:55 PM 59.0 °F 55.9 °F 90% 29.94 in 0.2 mi Calm Calm - N/A Fog Fog